| time (UTC) | temp C | wind direction | speed KPH | gust KPH | rain 1hr cm | rain 24hr cm | rain mn cm | humidity % | barometer mb |
| 20260506103220 | 13 | 348 | 11.3 | 25.7 | 0.00 | 0.00 | 0.00 | 76 | 1009.9 |
| 20260506103020 | 13 | 357 | 9.7 | 22.5 | 0.00 | 0.00 | 0.00 | 77 | 1009.6 |
| 20260506101720 | 13 | 332 | 14.5 | 22.5 | 0.00 | 0.00 | 0.00 | 77 | 1009.9 |
| 20260506101020 | 13 | 355 | 11.3 | 17.7 | 0.00 | 0.00 | 0.00 | 78 | 1009.6 |
| 20260506100719 | 13 | 338 | 8.0 | 19.3 | 0.00 | 0.00 | 0.00 | 77 | 1009.8 |
| 20260506100219 | 13 | 349 | 9.7 | 22.5 | 0.00 | 0.00 | 0.00 | 78 | 1009.8 |
| 20260506100020 | 12 | 351 | 11.3 | 22.5 | 0.00 | 0.00 | 0.00 | 77 | 1009.5 |
| 20260506095720 | 13 | 356 | 14.5 | 25.7 | 0.00 | 0.00 | 0.00 | 78 | 1009.8 |
| 20260506095020 | 13 | 5 | 12.9 | 24.1 | 0.00 | 0.00 | 0.00 | 78 | 1009.5 |
| 20260506094220 | 12 | 359 | 12.9 | 20.9 | 0.00 | 0.00 | 0.00 | 78 | 1009.7 |
| 20260506094020 | 12 | 348 | 11.3 | 22.5 | 0.00 | 0.00 | 0.00 | 78 | 1009.5 |
| 20260506093720 | 12 | 351 | 11.3 | 20.9 | 0.00 | 0.00 | 0.00 | 78 | 1009.8 |
| 20260506093220 | 13 | 354 | 9.7 | 19.3 | 0.00 | 0.00 | 0.00 | 78 | 1009.8 |
| 20260506093020 | 13 | 14 | 9.7 | 14.5 | 0.00 | 0.00 | 0.00 | 78 | 1009.5 |
| 20260506092720 | 12 | 35 | 11.3 | 24.1 | 0.00 | 0.00 | 0.00 | 79 | 1009.8 |
| 20260506092220 | 12 | 353 | 9.7 | 19.3 | 0.00 | 0.00 | 0.00 | 79 | 1009.8 |
| 20260506092020 | 12 | 15 | 9.7 | 14.5 | 0.00 | 0.00 | 0.00 | 78 | 1009.5 |
| 20260506091720 | 12 | 35 | 8.0 | 20.9 | 0.00 | 0.00 | 0.00 | 79 | 1009.8 |
| 20260506091220 | 12 | 351 | 9.7 | 20.9 | 0.00 | 0.00 | 0.00 | 80 | 1009.7 |
| 20260506091020 | 12 | 1 | 9.7 | 20.9 | 0.00 | 0.00 | 0.00 | 80 | 1009.5 |
| 20260506090720 | 12 | 13 | 6.4 | 14.5 | 0.00 | 0.00 | 0.00 | 79 | 1009.8 |
| 20260506090219 | 12 | 6 | 11.3 | 19.3 | 0.00 | 0.00 | 0.00 | 80 | 1009.7 |
| 20260506090020 | 11 | 353 | 12.9 | 17.7 | 0.00 | 0.00 | 0.00 | 80 | 1009.4 |
| 20260506085720 | 11 | 8 | 11.3 | 19.3 | 0.00 | 0.00 | 0.00 | 80 | 1009.7 |
| 20260506085219 | 11 | 1 | 11.3 | 19.3 | 0.00 | 0.00 | 0.00 | 80 | 1009.6 |
| 20260506084720 | 11 | 13 | 8.0 | 14.5 | 0.00 | 0.00 | 0.00 | 80 | 1009.6 |
| 20260506084220 | 11 | 3 | 4.8 | 19.3 | 0.00 | 0.00 | 0.00 | 81 | 1009.6 |
| 20260506084019 | 11 | 5 | 6.4 | 11.3 | 0.00 | 0.00 | 0.00 | 81 | 1009.3 |
| 20260506083720 | 11 | 344 | 9.7 | 20.9 | 0.00 | 0.00 | 0.00 | 81 | 1009.6 |
| 20260506083220 | 11 | 20 | 6.4 | 14.5 | 0.00 | 0.00 | 0.00 | 81 | 1009.5 |
| 20260506083020 | 11 | 48 | 8.0 | 14.5 | 0.00 | 0.00 | 0.00 | 82 | 1009.2 |
| 20260506082720 | 11 | 18 | 4.8 | 14.5 | 0.00 | 0.00 | 0.00 | 82 | 1009.5 |
| 20260506082220 | 11 | 346 | 9.7 | 19.3 | 0.00 | 0.00 | 0.00 | 82 | 1009.4 |
| 20260506082020 | 11 | 17 | 9.7 | 17.7 | 0.00 | 0.00 | 0.00 | 83 | 1009.1 |
| 20260506081719 | 11 | 6 | 8.0 | 25.7 | 0.00 | 0.00 | 0.00 | 83 | 1009.4 |
| 20260506081220 | 11 | 357 | 9.7 | 19.3 | 0.00 | 0.00 | 0.00 | 83 | 1009.4 |
| 20260506081020 | 11 | 4 | 11.3 | 19.3 | 0.00 | 0.00 | 0.00 | 83 | 1009.1 |
| 20260506080720 | 11 | 8 | 8.0 | 14.5 | 0.00 | 0.00 | 0.00 | 83 | 1009.5 |
| 20260506080219 | 11 | 0 | 9.7 | 19.3 | 0.00 | 0.00 | 0.00 | 84 | 1009.4 |
| 20260506073219 | 10 | 37 | 8.0 | 16.1 | 0.00 | 0.00 | 0.00 | 86 | 1009.4 |
| 20260506073020 | 10 | 6 | 8.0 | 19.3 | 0.00 | 0.00 | 0.00 | 86 | 1009.0 |
| 20260506072719 | 10 | 44 | 4.8 | 12.9 | 0.00 | 0.00 | 0.00 | 86 | 1009.3 |
| 20260506072219 | 10 | 18 | 8.0 | 20.9 | 0.00 | 0.00 | 0.00 | 86 | 1009.3 |
| 20260506071719 | 10 | 30 | 4.8 | 14.5 | 0.00 | 0.00 | 0.00 | 86 | 1009.3 |
| 20260506071020 | 10 | 48 | 4.8 | 11.3 | 0.00 | 0.00 | 0.00 | 86 | 1009.0 |
| 20260506070719 | 10 | 53 | 8.0 | 16.1 | 0.00 | 0.00 | 0.00 | 86 | 1009.3 |
| 20260506070220 | 10 | 59 | 8.0 | 12.9 | 0.00 | 0.00 | 0.00 | 86 | 1009.3 |
| 20260506062019 | 10 | 53 | 6.4 | 11.3 | 0.00 | 0.00 | 0.00 | 84 | 1008.8 |
| 20260506061719 | 10 | 51 | 9.7 | 14.5 | 0.00 | 0.00 | 0.00 | 84 | 1009.1 |
| 20260506061019 | 10 | 44 | 8.0 | 12.9 | 0.00 | 0.00 | 0.00 | 83 | 1008.8 |
| 20260506060719 | 10 | 43 | 9.7 | 19.3 | 0.00 | 0.00 | 0.00 | 83 | 1009.1 |
| 20260506051220 | 10 | 24 | 8.0 | 22.5 | 0.00 | 0.00 | 0.00 | 81 | 1008.9 |
| 20260506051019 | 10 | 6 | 9.7 | 22.5 | 0.00 | 0.00 | 0.00 | 81 | 1008.6 |
| 20260506050719 | 10 | 0 | 4.8 | 16.1 | 0.00 | 0.00 | 0.00 | 81 | 1009.0 |
| 20260506045019 | 10 | 355 | 4.8 | 9.7 | 0.00 | 0.00 | 0.00 | 81 | 1008.7 |
| 20260506044719 | 10 | 355 | 4.8 | 12.9 | 0.00 | 0.00 | 0.00 | 80 | 1009.0 |
| 20260506044219 | 10 | 355 | 9.7 | 19.3 | 0.00 | 0.00 | 0.00 | 80 | 1009.0 |
| 20260506044019 | 10 | 348 | 6.4 | 17.7 | 0.00 | 0.00 | 0.00 | 80 | 1008.7 |
| 20260506043719 | 10 | 351 | 9.7 | 19.3 | 0.00 | 0.00 | 0.00 | 80 | 1009.1 |
| 20260506043219 | 10 | 3 | 8.0 | 16.1 | 0.00 | 0.00 | 0.00 | 79 | 1009.0 |
| 20260506043019 | 10 | 347 | 8.0 | 17.7 | 0.00 | 0.00 | 0.00 | 79 | 1008.7 |
| 20260506042719 | 10 | 355 | 4.8 | 16.1 | 0.00 | 0.00 | 0.00 | 79 | 1009.0 |
| 20260506042219 | 10 | 1 | 8.0 | 16.1 | 0.00 | 0.00 | 0.00 | 79 | 1009.0 |
| 20260506042019 | 10 | 25 | 6.4 | 12.9 | 0.00 | 0.00 | 0.00 | 79 | 1008.7 |
| 20260506041719 | 10 | 27 | 8.0 | 16.1 | 0.00 | 0.00 | 0.00 | 79 | 1009.0 |
| 20260506041219 | 10 | 5 | 8.0 | 19.3 | 0.00 | 0.00 | 0.00 | 79 | 1009.0 |
| 20260506040719 | 10 | 354 | 4.8 | 16.1 | 0.00 | 0.00 | 0.00 | 79 | 1009.0 |
| 20260506040219 | 10 | 344 | 4.8 | 19.3 | 0.00 | 0.00 | 0.00 | 79 | 1009.1 |
| 20260506040019 | 10 | 346 | 6.4 | 19.3 | 0.00 | 0.00 | 0.00 | 79 | 1008.8 |
| 20260506035718 | 10 | 19 | 8.0 | 16.1 | 0.00 | 0.00 | 0.00 | 79 | 1009.2 |
| 20260506035219 | 10 | 3 | 8.0 | 22.5 | 0.00 | 0.00 | 0.00 | 78 | 1009.1 |
| 20260506035020 | 10 | 8 | 8.0 | 17.7 | 0.00 | 0.00 | 0.00 | 78 | 1008.8 |
| 20260506034719 | 10 | 358 | 9.7 | 22.5 | 0.00 | 0.00 | 0.00 | 78 | 1009.1 |
| 20260506034219 | 10 | 1 | 6.4 | 11.3 | 0.00 | 0.00 | 0.00 | 77 | 1009.2 |
| 20260506034019 | 10 | 348 | 6.4 | 9.7 | 0.00 | 0.00 | 0.00 | 77 | 1008.9 |
| 20260506033719 | 10 | 331 | 6.4 | 16.1 | 0.00 | 0.00 | 0.00 | 77 | 1009.2 |
| 20260506033219 | 10 | 41 | 3.2 | 11.3 | 0.00 | 0.00 | 0.00 | 77 | 1009.2 |
| 20260506033020 | 10 | 40 | 6.4 | 11.3 | 0.00 | 0.00 | 0.00 | 77 | 1008.9 |
| 20260506032719 | 10 | 36 | 6.4 | 9.7 | 0.00 | 0.00 | 0.00 | 77 | 1009.2 |
| 20260506032219 | 10 | 38 | 4.8 | 19.3 | 0.00 | 0.00 | 0.00 | 77 | 1009.2 |
| 20260506032019 | 10 | 43 | 8.0 | 17.7 | 0.00 | 0.00 | 0.00 | 77 | 1008.9 |
| 20260506031719 | 10 | 51 | 9.7 | 12.9 | 0.00 | 0.00 | 0.00 | 77 | 1009.2 |
| 20260506031219 | 10 | 21 | 4.8 | 12.9 | 0.00 | 0.00 | 0.00 | 78 | 1009.2 |
| 20260506030718 | 10 | 355 | 3.2 | 16.1 | 0.00 | 0.00 | 0.00 | 78 | 1009.3 |
| 20260506030019 | 10 | 5 | 6.4 | 12.9 | 0.00 | 0.00 | 0.00 | 78 | 1009.0 |
| 20260506025719 | 10 | 6 | 6.4 | 16.1 | 0.00 | 0.00 | 0.00 | 78 | 1009.4 |
| 20260506025219 | 10 | 49 | 4.8 | 11.3 | 0.00 | 0.00 | 0.00 | 78 | 1009.5 |
| 20260506024719 | 10 | 18 | 4.8 | 12.9 | 0.00 | 0.00 | 0.00 | 78 | 1009.5 |
| 20260506024219 | 10 | 42 | 3.2 | 9.7 | 0.00 | 0.00 | 0.00 | 78 | 1009.5 |
| 20260506024019 | 10 | 41 | 4.8 | 11.3 | 0.00 | 0.00 | 0.00 | 78 | 1009.2 |
| 20260506023219 | 10 | 37 | 6.4 | 14.5 | 0.00 | 0.00 | 0.00 | 79 | 1009.5 |
| 20260506022718 | 10 | 40 | 8.0 | 14.5 | 0.00 | 0.00 | 0.00 | 79 | 1009.6 |
| 20260506022219 | 9 | 43 | 8.0 | 12.9 | 0.00 | 0.00 | 0.00 | 79 | 1009.6 |
| 20260506022018 | 9 | 51 | 6.4 | 12.9 | 0.00 | 0.00 | 0.00 | 79 | 1009.3 |
| 20260506021719 | 9 | 51 | 6.4 | 12.9 | 0.00 | 0.00 | 0.00 | 79 | 1009.6 |
| 20260506021219 | 9 | 49 | 4.8 | 11.3 | 0.00 | 0.00 | 0.00 | 79 | 1009.6 |
| 20260506021020 | 9 | 27 | 6.4 | 11.3 | 0.00 | 0.00 | 0.00 | 79 | 1009.2 |
| 20260506020722 | 9 | 37 | 4.8 | 9.7 | 0.00 | 0.00 | 0.00 | 79 | 1009.6 |
| 20260506020018 | 9 | 32 | 4.8 | 9.7 | 0.00 | 0.00 | 0.00 | 79 | 1009.4 |
| 20260506015719 | 9 | 32 | 6.4 | 11.3 | 0.00 | 0.00 | 0.00 | 79 | 1009.7 |
| 20260506015219 | 9 | 37 | 4.8 | 12.9 | 0.00 | 0.00 | 0.00 | 79 | 1009.7 |
| 20260506015019 | 9 | 35 | 8.0 | 12.9 | 0.00 | 0.00 | 0.00 | 79 | 1009.4 |
| 20260506014718 | 9 | 49 | 8.0 | 14.5 | 0.00 | 0.00 | 0.00 | 79 | 1009.7 |
| 20260506014219 | 9 | 41 | 4.8 | 9.7 | 0.00 | 0.00 | 0.00 | 79 | 1009.7 |
| 20260506014019 | 9 | 43 | 4.8 | 9.7 | 0.00 | 0.00 | 0.00 | 79 | 1009.5 |
| 20260506013719 | 9 | 44 | 6.4 | 12.9 | 0.00 | 0.00 | 0.00 | 79 | 1009.8 |
| 20260506013219 | 9 | 53 | 8.0 | 19.3 | 0.00 | 0.00 | 0.00 | 79 | 1009.7 |
| 20260506013019 | 9 | 50 | 6.4 | 11.3 | 0.00 | 0.00 | 0.00 | 79 | 1009.5 |
| 20260506012718 | 9 | 47 | 6.4 | 9.7 | 0.00 | 0.00 | 0.00 | 79 | 1009.7 |
| 20260506012219 | 9 | 47 | 8.0 | 11.3 | 0.00 | 0.00 | 0.00 | 79 | 1009.8 |
| 20260506012019 | 9 | 47 | 6.4 | 11.3 | 0.00 | 0.00 | 0.00 | 79 | 1009.5 |
| 20260506011719 | 8 | 43 | 8.0 | 12.9 | 0.00 | 0.00 | 0.00 | 79 | 1009.7 |
| 20260506011218 | 8 | 54 | 8.0 | 19.3 | 0.00 | 0.00 | 0.00 | 79 | 1009.7 |
| 20260506011019 | 8 | 61 | 6.4 | 12.9 | 0.00 | 0.00 | 0.00 | 79 | 1009.5 |
| 20260506010718 | 8 | 60 | 8.0 | 12.9 | 0.00 | 0.00 | 0.00 | 79 | 1009.8 |
| 20260506010218 | 8 | 53 | 8.0 | 14.5 | 0.00 | 0.00 | 0.00 | 79 | 1009.8 |
| 20260506010018 | 9 | 53 | 8.0 | 14.5 | 0.00 | 0.00 | 0.00 | 79 | 1009.5 |
| 20260506005719 | 8 | 51 | 8.0 | 14.5 | 0.00 | 0.00 | 0.00 | 79 | 1009.8 |
| 20260506005218 | 9 | 59 | 9.7 | 14.5 | 0.00 | 0.00 | 0.00 | 79 | 1009.9 |
| 20260506005019 | 9 | 58 | 9.7 | 16.1 | 0.00 | 0.00 | 0.00 | 78 | 1009.6 |
| 20260506004718 | 9 | 53 | 8.0 | 14.5 | 0.00 | 0.00 | 0.00 | 79 | 1009.9 |
| 20260506004218 | 9 | 53 | 8.0 | 16.1 | 0.00 | 0.00 | 0.00 | 79 | 1009.9 |
| 20260506003719 | 9 | 55 | 8.0 | 14.5 | 0.00 | 0.00 | 0.00 | 79 | 1009.9 |
| 20260506003218 | 9 | 45 | 8.0 | 16.1 | 0.00 | 0.00 | 0.00 | 79 | 1010.0 |
| 20260506003019 | 9 | 44 | 8.0 | 16.1 | 0.00 | 0.00 | 0.00 | 79 | 1009.7 |
| 20260506002719 | 9 | 58 | 6.4 | 16.1 | 0.00 | 0.00 | 0.00 | 79 | 1010.1 |
| 20260506002219 | 9 | 51 | 6.4 | 14.5 | 0.00 | 0.00 | 0.00 | 79 | 1010.1 |
| 20260506002019 | 9 | 51 | 9.7 | 14.5 | 0.00 | 0.00 | 0.00 | 78 | 1009.8 |
| 20260506001719 | 9 | 54 | 8.0 | 14.5 | 0.00 | 0.00 | 0.00 | 78 | 1010.1 |
| 20260506001218 | 9 | 53 | 9.7 | 14.5 | 0.00 | 0.00 | 0.00 | 78 | 1010.2 |
| 20260506001019 | 9 | 49 | 9.7 | 14.5 | 0.00 | 0.00 | 0.00 | 78 | 1009.9 |
| 20260506000719 | 9 | 60 | 6.4 | 16.1 | 0.00 | 0.00 | 0.00 | 78 | 1010.2 |
| 20260506000019 | 9 | 57 | 8.0 | 11.3 | 0.00 | 0.00 | 0.00 | 78 | 1009.9 |
| 20260505235718 | 9 | 57 | 4.8 | 9.7 | 0.00 | 0.00 | 0.00 | 78 | 1010.2 |
| 20260505235219 | 9 | 60 | 8.0 | 11.3 | 0.00 | 0.00 | 0.00 | 78 | 1010.2 |
| 20260505235019 | 9 | 61 | 6.4 | 9.7 | 0.00 | 0.00 | 0.00 | 78 | 1009.9 |
| 20260505234718 | 9 | 60 | 6.4 | 12.9 | 0.00 | 0.00 | 0.00 | 78 | 1010.2 |
| 20260505234019 | 9 | 61 | 6.4 | 11.3 | 0.00 | 0.00 | 0.00 | 78 | 1009.9 |
| 20260505233719 | 9 | 59 | 6.4 | 11.3 | 0.00 | 0.00 | 0.00 | 78 | 1010.3 |
| 20260505233219 | 9 | 58 | 6.4 | 12.9 | 0.00 | 0.00 | 0.00 | 78 | 1010.3 |
| 20260505233018 | 9 | 54 | 6.4 | 9.7 | 0.00 | 0.00 | 0.00 | 78 | 1010.1 |
| 20260505232718 | 9 | 55 | 9.7 | 12.9 | 0.00 | 0.00 | 0.00 | 78 | 1010.3 |
| 20260505232219 | 9 | 57 | 9.7 | 12.9 | 0.00 | 0.00 | 0.00 | 78 | 1010.3 |
| 20260505231718 | 9 | 61 | 8.0 | 14.5 | 0.00 | 0.00 | 0.00 | 78 | 1010.3 |
| 20260505231218 | 9 | 57 | 9.7 | 14.5 | 0.00 | 0.00 | 0.00 | 78 | 1010.3 |
| 20260505231018 | 9 | 59 | 8.0 | 12.9 | 0.00 | 0.00 | 0.00 | 78 | 1010.1 |
| 20260505230718 | 9 | 57 | 8.0 | 19.3 | 0.00 | 0.00 | 0.00 | 78 | 1010.3 |
| 20260505230018 | 9 | 54 | 8.0 | 12.9 | 0.00 | 0.00 | 0.00 | 78 | 1010.1 |
| 20260505225719 | 10 | 56 | 9.7 | 12.9 | 0.00 | 0.00 | 0.00 | 78 | 1010.4 |
| 20260505225219 | 10 | 57 | 9.7 | 14.5 | 0.00 | 0.00 | 0.00 | 77 | 1010.4 |
| 20260505225019 | 10 | 53 | 9.7 | 14.5 | 0.00 | 0.00 | 0.00 | 77 | 1010.1 |
| 20260505224719 | 10 | 51 | 8.0 | 16.1 | 0.00 | 0.00 | 0.00 | 77 | 1010.4 |
| 20260505224218 | 10 | 54 | 8.0 | 16.1 | 0.00 | 0.00 | 0.00 | 77 | 1010.5 |
| 20260505224018 | 10 | 56 | 8.0 | 11.3 | 0.00 | 0.00 | 0.00 | 77 | 1010.1 |
| 20260505223718 | 10 | 59 | 11.3 | 19.3 | 0.00 | 0.00 | 0.00 | 77 | 1010.5 |
| 20260505223218 | 10 | 56 | 11.3 | 16.1 | 0.00 | 0.00 | 0.00 | 77 | 1010.5 |
| 20260505223019 | 10 | 57 | 12.9 | 17.7 | 0.00 | 0.00 | 0.00 | 77 | 1010.2 |
| 20260505222718 | 10 | 64 | 8.0 | 14.5 | 0.00 | 0.00 | 0.00 | 77 | 1010.5 |
| 20260505222218 | 10 | 53 | 9.7 | 14.5 | 0.00 | 0.00 | 0.00 | 77 | 1010.5 |
| 20260505222019 | 10 | 60 | 9.7 | 14.5 | 0.00 | 0.00 | 0.00 | 77 | 1010.2 |
| 20260505221718 | 10 | 58 | 9.7 | 12.9 | 0.00 | 0.00 | 0.00 | 78 | 1010.5 |
| 20260505221218 | 10 | 56 | 11.3 | 16.1 | 0.00 | 0.00 | 0.00 | 78 | 1010.5 |
| 20260505221019 | 10 | 57 | 11.3 | 16.1 | 0.00 | 0.00 | 0.00 | 78 | 1010.3 |
| 20260505220718 | 10 | 43 | 8.0 | 14.5 | 0.00 | 0.00 | 0.00 | 78 | 1010.6 |
| 20260505220219 | 10 | 55 | 11.3 | 14.5 | 0.00 | 0.00 | 0.00 | 78 | 1010.5 |
| 20260505220019 | 10 | 51 | 11.3 | 16.1 | 0.00 | 0.00 | 0.00 | 78 | 1010.2 |
| 20260505215718 | 10 | 56 | 12.9 | 19.3 | 0.00 | 0.00 | 0.00 | 79 | 1010.5 |
| 20260505215219 | 10 | 56 | 11.3 | 16.1 | 0.00 | 0.00 | 0.00 | 79 | 1010.5 |
| 20260505215018 | 10 | 60 | 9.7 | 16.1 | 0.00 | 0.00 | 0.00 | 79 | 1010.2 |
| 20260505214718 | 10 | 60 | 11.3 | 14.5 | 0.00 | 0.00 | 0.00 | 79 | 1010.5 |
| 20260505214218 | 10 | 57 | 11.3 | 19.3 | 0.00 | 0.00 | 0.00 | 79 | 1010.6 |
| 20260505214019 | 10 | 56 | 9.7 | 12.9 | 0.00 | 0.00 | 0.00 | 79 | 1010.2 |
| 20260505213718 | 10 | 57 | 9.7 | 14.5 | 0.00 | 0.00 | 0.00 | 79 | 1010.6 |
| 20260505213219 | 10 | 54 | 8.0 | 14.5 | 0.00 | 0.00 | 0.00 | 79 | 1010.6 |
| 20260505213018 | 10 | 56 | 8.0 | 12.9 | 0.00 | 0.00 | 0.00 | 79 | 1010.3 |
| 20260505212718 | 10 | 52 | 9.7 | 12.9 | 0.00 | 0.00 | 0.00 | 79 | 1010.6 |
| 20260505212218 | 10 | 53 | 11.3 | 19.3 | 0.00 | 0.00 | 0.00 | 79 | 1010.6 |
| 20260505212018 | 10 | 57 | 11.3 | 17.7 | 0.00 | 0.00 | 0.00 | 79 | 1010.3 |
| 20260505211718 | 10 | 64 | 9.7 | 14.5 | 0.00 | 0.00 | 0.00 | 79 | 1010.6 |
| 20260505211218 | 10 | 52 | 9.7 | 16.1 | 0.00 | 0.00 | 0.00 | 79 | 1010.6 |
| 20260505210718 | 10 | 58 | 9.7 | 16.1 | 0.00 | 0.00 | 0.00 | 79 | 1010.6 |
| 20260505210218 | 11 | 47 | 9.7 | 19.3 | 0.00 | 0.00 | 0.00 | 78 | 1010.6 |
| 20260505210018 | 11 | 56 | 11.3 | 19.3 | 0.00 | 0.00 | 0.00 | 78 | 1010.2 |
| 20260505205718 | 11 | 58 | 9.7 | 19.3 | 0.00 | 0.00 | 0.00 | 78 | 1010.6 |
| 20260505205218 | 11 | 48 | 9.7 | 16.1 | 0.00 | 0.00 | 0.00 | 78 | 1010.7 |
| 20260505205019 | 11 | 51 | 9.7 | 12.9 | 0.00 | 0.00 | 0.00 | 78 | 1010.4 |
| 20260505204718 | 11 | 54 | 9.7 | 14.5 | 0.00 | 0.00 | 0.00 | 79 | 1010.7 |
| 20260505204218 | 11 | 48 | 9.7 | 16.1 | 0.00 | 0.00 | 0.00 | 79 | 1010.7 |
| 20260505204019 | 11 | 53 | 11.3 | 16.1 | 0.00 | 0.00 | 0.00 | 79 | 1010.4 |
| 20260505203718 | 11 | 47 | 11.3 | 16.1 | 0.00 | 0.00 | 0.00 | 78 | 1010.6 |
| 20260505203218 | 11 | 52 | 9.7 | 16.1 | 0.00 | 0.00 | 0.00 | 78 | 1010.6 |
| 20260505203018 | 11 | 52 | 9.7 | 16.1 | 0.00 | 0.00 | 0.00 | 78 | 1010.3 |
| 20260505202717 | 11 | 48 | 11.3 | 16.1 | 0.00 | 0.00 | 0.00 | 78 | 1010.6 |
| 20260505201718 | 11 | 55 | 9.7 | 16.1 | 0.00 | 0.00 | 0.00 | 78 | 1010.6 |
| 20260505201218 | 11 | 52 | 9.7 | 14.5 | 0.00 | 0.00 | 0.00 | 78 | 1010.5 |
| 20260505201018 | 11 | 53 | 8.0 | 14.5 | 0.00 | 0.00 | 0.00 | 78 | 1010.2 |
| 20260505200718 | 11 | 51 | 9.7 | 19.3 | 0.00 | 0.00 | 0.00 | 78 | 1010.5 |
| 20260505200218 | 11 | 41 | 8.0 | 16.1 | 0.00 | 0.00 | 0.00 | 78 | 1010.5 |
| 20260505200018 | 11 | 43 | 9.7 | 12.9 | 0.00 | 0.00 | 0.00 | 78 | 1010.2 |
| 20260505195719 | 11 | 46 | 9.7 | 16.1 | 0.00 | 0.00 | 0.00 | 77 | 1010.5 |
| 20260505195218 | 11 | 57 | 8.0 | 12.9 | 0.00 | 0.00 | 0.00 | 77 | 1010.4 |
| 20260505195018 | 11 | 39 | 8.0 | 12.9 | 0.00 | 0.00 | 0.00 | 77 | 1010.1 |
| 20260505194718 | 11 | 43 | 9.7 | 19.3 | 0.00 | 0.00 | 0.00 | 77 | 1010.4 |
| 20260505194218 | 11 | 55 | 9.7 | 16.1 | 0.00 | 0.00 | 0.00 | 77 | 1010.4 |
| 20260505194018 | 11 | 57 | 9.7 | 14.5 | 0.00 | 0.00 | 0.00 | 77 | 1010.1 |
| 20260505193718 | 11 | 46 | 9.7 | 16.1 | 0.00 | 0.00 | 0.00 | 77 | 1010.4 |
| 20260505191721 | 11 | 38 | 8.0 | 14.5 | 0.00 | 0.00 | 0.00 | 76 | 1010.3 |
| 20260505191220 | 11 | 40 | 9.7 | 14.5 | 0.00 | 0.00 | 0.00 | 76 | 1010.2 |
| 20260505190721 | 11 | 50 | 9.7 | 16.1 | 0.00 | 0.00 | 0.00 | 76 | 1010.2 |
| 20260505190220 | 11 | 53 | 9.7 | 14.5 | 0.00 | 0.00 | 0.00 | 76 | 1010.2 |
| 20260505185721 | 11 | 32 | 8.0 | 16.1 | 0.00 | 0.00 | 0.00 | 75 | 1010.2 |
| 20260505185220 | 11 | 45 | 9.7 | 19.3 | 0.00 | 0.00 | 0.00 | 75 | 1010.0 |
| 20260505185020 | 11 | 31 | 8.0 | 16.1 | 0.00 | 0.00 | 0.00 | 75 | 1009.7 |
| 20260505184721 | 11 | 2 | 9.7 | 19.3 | 0.00 | 0.00 | 0.00 | 75 | 1010.1 |
| 20260505184220 | 11 | 17 | 9.7 | 19.3 | 0.00 | 0.00 | 0.00 | 75 | 1010.0 |
| 20260505184021 | 11 | 54 | 9.7 | 14.5 | 0.00 | 0.00 | 0.00 | 75 | 1009.7 |
| 20260505183720 | 11 | 51 | 9.7 | 24.1 | 0.00 | 0.00 | 0.00 | 75 | 1010.0 |
| 20260505183220 | 12 | 27 | 11.3 | 19.3 | 0.00 | 0.00 | 0.00 | 74 | 1009.9 |
| 20260505183021 | 12 | 10 | 9.7 | 19.3 | 0.00 | 0.00 | 0.00 | 74 | 1009.6 |
| 20260505182720 | 12 | 21 | 8.0 | 16.1 | 0.00 | 0.00 | 0.00 | 74 | 1009.9 |
| 20260505182220 | 12 | 50 | 9.7 | 19.3 | 0.00 | 0.00 | 0.00 | 74 | 1009.8 |
| 20260505182020 | 12 | 39 | 11.3 | 17.7 | 0.00 | 0.00 | 0.00 | 74 | 1009.5 |
| 20260505181720 | 12 | 16 | 9.7 | 19.3 | 0.00 | 0.00 | 0.00 | 74 | 1009.8 |
| 20260505181220 | 12 | 37 | 9.7 | 22.5 | 0.00 | 0.00 | 0.00 | 73 | 1009.8 |
| 20260505181020 | 12 | 28 | 9.7 | 22.5 | 0.00 | 0.00 | 0.00 | 73 | 1009.5 |
| 20260505180720 | 12 | 37 | 9.7 | 19.3 | 0.00 | 0.00 | 0.00 | 73 | 1009.8 |
| 20260505180220 | 12 | 28 | 9.7 | 19.3 | 0.00 | 0.00 | 0.00 | 73 | 1009.7 |
| 20260505180020 | 12 | 34 | 11.3 | 22.5 | 0.00 | 0.00 | 0.00 | 73 | 1009.4 |
| 20260505175720 | 12 | 13 | 9.7 | 19.3 | 0.00 | 0.00 | 0.00 | 73 | 1009.7 |
| 20260505175221 | 12 | 351 | 11.3 | 19.3 | 0.00 | 0.00 | 0.00 | 73 | 1009.7 |
| 20260505175020 | 12 | 23 | 8.0 | 12.9 | 0.00 | 0.00 | 0.00 | 73 | 1009.4 |
| 20260505174720 | 12 | 30 | 8.0 | 20.9 | 0.00 | 0.00 | 0.00 | 73 | 1009.7 |
| 20260505174221 | 12 | 34 | 9.7 | 19.3 | 0.00 | 0.00 | 0.00 | 73 | 1009.6 |
| 20260505174020 | 12 | 23 | 8.0 | 19.3 | 0.00 | 0.00 | 0.00 | 72 | 1009.4 |
| 20260505173721 | 12 | 41 | 8.0 | 19.3 | 0.00 | 0.00 | 0.00 | 73 | 1009.7 |
| 20260505173220 | 12 | 36 | 6.4 | 20.9 | 0.00 | 0.00 | 0.00 | 72 | 1009.6 |
| 20260505173020 | 12 | 34 | 9.7 | 14.5 | 0.00 | 0.00 | 0.00 | 72 | 1009.3 |
| 20260505172720 | 12 | 36 | 9.7 | 20.9 | 0.00 | 0.00 | 0.00 | 72 | 1009.6 |
| 20260505172020 | 13 | 15 | 9.7 | 16.1 | 0.00 | 0.00 | 0.00 | 72 | 1009.3 |
| 20260505171720 | 13 | 9 | 11.3 | 19.3 | 0.00 | 0.00 | 0.00 | 72 | 1009.7 |
| 20260505171221 | 13 | 55 | 8.0 | 19.3 | 0.00 | 0.00 | 0.00 | 73 | 1009.7 |
| 20260505171020 | 13 | 27 | 8.0 | 17.7 | 0.00 | 0.00 | 0.00 | 73 | 1009.5 |
| 20260505170720 | 13 | 15 | 8.0 | 14.5 | 0.00 | 0.00 | 0.00 | 72 | 1009.8 |
| 20260505170220 | 13 | 56 | 9.7 | 25.7 | 0.00 | 0.00 | 0.00 | 71 | 1009.7 |
| 20260505170020 | 13 | 39 | 9.7 | 20.9 | 0.00 | 0.00 | 0.00 | 71 | 1009.5 |
| 20260505165720 | 13 | 45 | 9.7 | 22.5 | 0.00 | 0.00 | 0.00 | 71 | 1009.8 |
| 20260505165020 | 13 | 14 | 11.3 | 20.9 | 0.00 | 0.00 | 0.00 | 72 | 1009.5 |
| 20260505164720 | 13 | 353 | 8.0 | 24.1 | 0.00 | 0.00 | 0.00 | 72 | 1009.8 |
| 20260505164220 | 13 | 27 | 8.0 | 14.5 | 0.00 | 0.00 | 0.00 | 72 | 1009.8 |
| 20260505164020 | 13 | 28 | 8.0 | 14.5 | 0.00 | 0.00 | 0.00 | 72 | 1009.5 |
| 20260505163720 | 13 | 24 | 11.3 | 22.5 | 0.00 | 0.00 | 0.00 | 71 | 1009.9 |
| 20260505163221 | 13 | 345 | 11.3 | 20.9 | 0.00 | 0.00 | 0.00 | 72 | 1009.9 |
| 20260505163020 | 13 | 7 | 9.7 | 20.9 | 0.00 | 0.00 | 0.00 | 72 | 1009.6 |
| 20260505162720 | 13 | 50 | 8.0 | 22.5 | 0.00 | 0.00 | 0.00 | 72 | 1009.8 |
| 20260505162220 | 13 | 3 | 9.7 | 20.9 | 0.00 | 0.00 | 0.00 | 72 | 1009.9 |
| 20260505162020 | 13 | 39 | 9.7 | 16.1 | 0.00 | 0.00 | 0.00 | 72 | 1009.5 |
| 20260505161721 | 13 | 56 | 9.7 | 20.9 | 0.00 | 0.00 | 0.00 | 72 | 1009.9 |
| 20260505161220 | 13 | 358 | 12.9 | 20.9 | 0.00 | 0.00 | 0.00 | 72 | 1009.9 |
| 20260505161020 | 13 | 2 | 11.3 | 20.9 | 0.00 | 0.00 | 0.00 | 72 | 1009.7 |
| 20260505160720 | 13 | 43 | 9.7 | 24.1 | 0.00 | 0.00 | 0.00 | 71 | 1009.9 |
| 20260505160220 | 13 | 354 | 9.7 | 20.9 | 0.00 | 0.00 | 0.00 | 71 | 1010.0 |
| 20260505153220 | 14 | 23 | 12.9 | 25.7 | 0.00 | 0.00 | 0.00 | 70 | 1010.0 |
| 20260505153020 | 14 | 356 | 9.7 | 25.7 | 0.00 | 0.00 | 0.00 | 71 | 1009.8 |
| 20260505152720 | 14 | 1 | 11.3 | 25.7 | 0.00 | 0.00 | 0.00 | 71 | 1010.1 |
| 20260505152220 | 15 | 31 | 9.7 | 20.9 | 0.00 | 0.00 | 0.00 | 70 | 1010.1 |
| 20260505152020 | 15 | 1 | 12.9 | 29.0 | 0.00 | 0.00 | 0.00 | 70 | 1009.8 |
| 20260505151720 | 15 | 359 | 9.7 | 24.1 | 0.00 | 0.00 | 0.00 | 73 | 1010.1 |
| 20260505151220 | 14 | 2 | 9.7 | 22.5 | 0.00 | 0.00 | 0.00 | 70 | 1010.1 |
| 20260505151021 | 14 | 13 | 8.0 | 14.5 | 0.00 | 0.00 | 0.00 | 70 | 1009.8 |
| 20260505150720 | 14 | 1 | 12.9 | 24.1 | 0.00 | 0.00 | 0.00 | 70 | 1010.1 |
| 20260505140220 | 14 | 344 | 11.3 | 19.3 | 0.00 | 0.00 | 0.00 | 71 | 1010.3 |
| 20260505130220 | 14 | 0 | 11.3 | 20.9 | 0.00 | 0.00 | 0.00 | 74 | 1010.6 |
| 20260505125020 | 13 | 40 | 9.7 | 16.1 | 0.00 | 0.00 | 0.00 | 74 | 1010.5 |
| 20260505124219 | 13 | 342 | 8.0 | 14.5 | 0.00 | 0.00 | 0.00 | 75 | 1010.7 |
| 20260505124020 | 13 | 4 | 9.7 | 17.7 | 0.00 | 0.00 | 0.00 | 74 | 1010.4 |
| 20260505123720 | 13 | 356 | 9.7 | 19.3 | 0.00 | 0.00 | 0.00 | 74 | 1010.7 |
| 20260505123219 | 13 | 55 | 11.3 | 19.3 | 0.00 | 0.00 | 0.00 | 73 | 1010.7 |
| 20260505123020 | 14 | 61 | 11.3 | 16.1 | 0.00 | 0.00 | 0.00 | 74 | 1010.4 |
| 20260505122020 | 14 | 1 | 9.7 | 16.1 | 0.00 | 0.00 | 0.00 | 74 | 1010.5 |
| 20260505121719 | 15 | 346 | 8.0 | 19.3 | 0.00 | 0.00 | 0.00 | 73 | 1010.8 |
| 20260505121020 | 15 | 67 | 11.3 | 17.7 | 0.00 | 0.00 | 0.00 | 73 | 1010.5 |
| 20260505120719 | 14 | 67 | 11.3 | 19.3 | 0.00 | 0.00 | 0.00 | 75 | 1010.8 |
| 20260505120020 | 14 | 69 | 12.9 | 24.1 | 0.00 | 0.00 | 0.00 | 73 | 1010.5 |
| 20260505115720 | 15 | 67 | 12.9 | 22.5 | 0.00 | 0.00 | 0.00 | 71 | 1010.8 |
| 20260505115220 | 14 | 62 | 16.1 | 25.7 | 0.00 | 0.00 | 0.00 | 70 | 1010.8 |
| 20260505115020 | 15 | 70 | 9.7 | 17.7 | 0.00 | 0.00 | 0.00 | 72 | 1010.5 |
| 20260505114220 | 14 | 62 | 16.1 | 24.1 | 0.00 | 0.00 | 0.00 | 72 | 1010.8 |
| 20260505114020 | 15 | 69 | 14.5 | 22.5 | 0.00 | 0.00 | 0.00 | 74 | 1010.5 |
| 20260505113719 | 15 | 69 | 9.7 | 20.9 | 0.00 | 0.00 | 0.00 | 74 | 1010.8 |
| 20260505113219 | 14 | 71 | 11.3 | 19.3 | 0.00 | 0.00 | 0.00 | 75 | 1010.9 |
| 20260505113019 | 14 | 70 | 12.9 | 19.3 | 0.00 | 0.00 | 0.00 | 74 | 1010.6 |
| 20260505112719 | 15 | 62 | 11.3 | 20.9 | 0.00 | 0.00 | 0.00 | 75 | 1010.9 |
| 20260505112019 | 14 | 67 | 14.5 | 20.9 | 0.00 | 0.00 | 0.00 | 73 | 1010.7 |
| 20260505111020 | 14 | 67 | 16.1 | 24.1 | 0.00 | 0.00 | 0.00 | 73 | 1010.7 |
| 20260505110220 | 13 | 65 | 14.5 | 20.9 | 0.00 | 0.00 | 0.00 | 73 | 1011.1 |